Regional Weather Roundup
Issued by NWS

Home | Current Version | Previous Version | Graphics & Text | Print | Product List | Glossary On
Versions: 1 2 3 4 5 6 7 8 9 10 11 12 13 14 15 16 17 18 19 20 21 22 23 24 25 26 27 28 29 30 31 32 33 34 35 36 37 38 39 40 41 42 43 44 45 46 47 48 49 50
000
ASUS43 KLMK 271310
RWRKY
KENTUCKY REGIONAL WEATHER ROUNDUP
NATIONAL WEATHER SERVICE LOUISVILLE KY
900 AM EDT WED MAY 27 2015

NOTE "FAIR" INDICATES FEW OR NO CLOUDS BELOW 12,000 FEET
WITH NO SIGNIFICANT WEATHER AND/OR OBSTRUCTIONS TO VISIBILITY.

KYZ001>023-026-027-061>063-070>075-271400-
WESTERN AND SOUTH CENTRAL KENTUCKY

CITY           SKY/WX    TMP DP  RH WIND       PRES   REMARKS
PADUCAH        MOSUNNY   70  66  87 SW6       30.09S
HENDERSON      MOSUNNY   70  63  78 SW8       30.09F
OWENSBORO      MOSUNNY   71  66  84 S8        30.14R
HOPKINSVILLE   MOSUNNY   72  67  86 S9        30.14R
BOWLING GREEN  PTSUNNY   72  67  84 SW9       30.17R
GLASGOW        PTSUNNY   71  68  91 SW7       30.18R
$$

KYZ024-025-028>034-038-045-046-053-271400-
NORTH CENTRAL KENTUCKY

CITY           SKY/WX    TMP DP  RH WIND       PRES   REMARKS
LOUISVILLE/SDF CLOUDY    71  66  84 SW10      30.14R
LOUISVILLE/LOU CLOUDY    70  66  87 S9        30.15R
FORT KNOX      PTSUNNY   70  66  88 S8        30.14R
$$

KYZ035>037-039>044-047>052-055>060-089>105-271400-
NORTHEAST KENTUCKY

CITY           SKY/WX    TMP DP  RH WIND       PRES   REMARKS
LEXINGTON      CLOUDY    71  67  87 SW13      30.18R
COVINGTON      MOSUNNY   70  64  81 SW12      30.13R
FRANKFORT      PTSUNNY   70  66  87 SW9       30.15R
$$

KYZ054-064>069-076>088-106>120-271400-
SOUTHEAST KENTUCKY

CITY           SKY/WX    TMP DP  RH WIND       PRES   REMARKS
JACKSON        CLOUDY    68  64  87 CALM      30.21R
LONDON         CLOUDY    69  62  78 S7        30.21R
SOMERSET       CLOUDY    68  64  88 SW5       30.21R
MIDDLESBORO    CLOUDY    69  63  81 S6        30.24R
MONTICELLO     CLOUDY    71  67  87 SW7       30.23R
$$



USA.gov is the U.S. government's official web portal to all federal, state and local government web resources and services.